Flag for India Weather past 2 weeks in Jaunpur, Uttar Pradesh, India

Now
91 °F

Scattered clouds.


Feels Like: 105 °F
Forecast: 80 / 97 °F
Wind: 1 mph from Southeast

Location: Varanasi / Babatpur

Current Time: Jul 25, 2014 at 3:13:41 PM

Latest Report: Jul 25, 2014 at 2:00 PM


Visibility: 4 mi

Pressure: 29.59 "Hg

Humidity: 63%

Dew point: 77 °F

Location of JaunpurLocation

Historic Weather in Jaunpur — Graph

°F

Jaunpur temperature yesterday

Maximum temperature yesterday: 91 °F (at 2:00 PM)
Minimum temperature yesterday: 77 °F (at 4:00 AM)
Average temperature yesterday: 85 °F

Past Weeks' High & Low Weather Summary

 TemperatureHumidityPressure
High102 °F (Jul 12, 4:00 AM)100% (Jul 17, 6:00 PM)29.62 "Hg (Jul 17, 6:00 PM)
Low77 °F (Jul 24, 4:00 AM)48% (Jul 12, 4:00 AM)29.33 "Hg (Jul 19, 4:00 PM)
Average87 °F78%29.46 "Hg
* Reported Jul 10 1:00 PM — Jul 25 1:00 PM, Jaunpur, Weather by CustomWeather, © 2014

Note: Actual official high and low records may vary slightly from our data, if they occured in-between our weather recording intervals... More about our weather records

Advertising

Jaunpur weather history for previous 24 hours

 ConditionsComfort  
Time TempWeatherWind HumidityBarometerVisibility
1:00 PM
Jul 25
90 °FPartly sunny.5 mph67%29.59 "Hg4 mi
12:00 PM90 °FScattered clouds.No wind67%29.62 "Hg4 mi
11:00 AM88 °FPartly sunny.2 mph66%29.62 "Hg4 mi
9:00 AM82 °FScattered clouds.1 mph84%29.62 "Hg3 mi
7:00 AM82 °FBroken clouds.No wind79%29.59 "Hg2 mi
6:00 AM81 °FBroken clouds.No wind84%29.59 "Hg2 mi
5:00 AM82 °FPartly cloudy.No wind79%29.56 "Hg2 mi
4:00 AM84 °FPartly cloudy.No wind74%29.56 "Hg2 mi
12:00 AM84 °FPartly cloudy.No wind74%29.59 "Hg2 mi
10:00 PM
Jul 24
86 °FPartly cloudy.No wind70%29.59 "Hg2 mi
9:00 PM86 °FPartly cloudy.No wind70%29.59 "Hg3 mi
8:00 PM86 °FPartly cloudy.No wind70%29.56 "Hg3 mi
7:00 PM86 °FBroken clouds.No wind70%29.53 "Hg3 mi
5:00 PM88 °FMore clouds than sun.No wind62%29.50 "Hg3 mi
4:00 PM90 °FBroken clouds.2 mph63%29.53 "Hg4 mi
3:00 PM91 °FScattered clouds.1 mph59%29.53 "Hg4 mi
Weather by CustomWeather, © 2014

See weather overviewHow to use our weather pages